Theta_e
292 292 293 292 293 294 294 295 297 299 300 300 301 302 304 306 308 309 313 316 319 320 323 325 327 329 329 328 329 330 330 331 331 332 333 334 334 331 326 328 332 334 337 343 344 346 345 345 345 344 349 349 346 345 344 342 343 346 346 344 344 344 342 341 341 341 340 340 340 340 340 339 337 337 336 336 335 334 333 332 331 331 330 330 329
291 291 291 291 292 293 293 294 295 297 299 298 299 301 302 303 304 306 309 313 317 319 320 322 324 327 329 329 329 330 330 330 331 331 332 333 333 332 325 326 329 334 336 338 344 344 345 345 347 343 348 350 346 346 346 344 346 344 344 344 344 344 342 342 341 341 340 340 339 339 338 338 337 336 336 335 334 334 333 332 331 331 330 329 329
290 290 290 290 291 291 291 293 294 296 297 297 298 299 300 301 302 304 307 312 315 319 320 320 322 325 327 328 329 330 330 331 331 331 331 332 332 332 331 323 325 329 332 336 339 343 343 345 346 342 347 347 346 348 345 344 344 343 344 344 343 343 341 339 340 340 340 340 339 338 337 337 336 336 335 334 334 333 332 331 330 329 329 328 328
288 288 289 289 289 289 290 291 292 295 296 296 297 298 299 300 301 303 304 307 311 313 317 319 320 323 325 326 327 328 329 330 331 331 331 331 331 332 332 330 323 324 327 332 338 340 342 343 343 343 346 347 349 347 347 344 343 344 345 345 345 343 341 340 340 339 339 339 338 338 337 337 336 336 335 334 333 332 331 331 329 329 328 328 328
287 287 288 287 287 288 288 290 291 294 295 296 297 297 298 299 299 301 302 304 307 309 312 315 318 320 323 325 326 327 328 329 329 330 331 331 331 331 331 330 329 322 321 325 331 336 340 342 343 343 344 343 345 345 343 344 344 344 344 345 343 343 342 342 340 340 339 339 338 337 337 336 335 335 334 333 331 331 330 329 329 328 328 328 328
286 286 287 287 287 287 288 288 290 292 294 295 296 296 296 297 298 299 300 301 303 305 307 309 312 317 320 323 324 326 327 328 328 329 330 330 330 331 331 331 330 328 326 321 323 328 334 338 342 343 341 342 345 346 344 344 345 346 345 345 342 342 343 343 341 341 339 339 337 337 336 335 334 333 332 332 331 330 329 328 328 328 328 328 327
286 286 286 286 286 286 287 288 290 292 293 294 295 296 296 296 297 297 298 299 301 302 304 306 308 310 314 319 322 324 325 326 327 327 328 329 330 330 330 330 330 329 328 327 319 321 327 333 338 341 343 342 342 342 343 344 342 341 344 342 341 344 343 341 340 339 338 338 337 336 335 334 333 332 331 332 331 330 329 328 328 328 328 328 326
286 286 284 284 284 284 286 288 290 292 293 294 295 295 296 296 296 297 296 297 299 299 301 302 304 306 309 313 318 321 323 324 326 326 328 328 328 329 329 329 329 329 323 327 327 323 321 326 331 336 339 341 342 340 343 346 344 343 345 346 344 344 342 340 340 340 338 336 335 335 334 334 332 331 331 331 330 329 328 328 328 328 327 326 326
285 284 284 283 284 284 284 285 287 290 292 293 294 295 295 296 296 296 296 296 297 297 298 299 301 302 303 305 309 317 321 324 325 326 327 326 327 328 329 329 328 320 327 327 327 327 323 322 326 330 331 335 339 341 342 344 344 344 345 344 344 343 341 339 339 338 336 336 335 334 334 333 332 331 331 330 329 329 328 329 328 328 326 327 327
284 284 283 284 284 283 283 284 285 286 288 290 292 294 295 295 295 295 295 295 295 295 296 298 299 300 301 303 305 310 318 323 324 321 325 325 326 327 328 328 328 328 328 327 327 327 327 324 321 323 323 327 335 339 340 341 344 341 340 342 342 343 341 338 338 336 336 335 335 334 334 333 331 330 330 330 328 328 328 327 327 327 327 327 325
283 283 282 283 282 283 283 283 285 285 286 287 289 292 293 294 294 294 295 295 295 296 297 298 298 298 299 301 303 307 313 320 322 323 323 324 325 324 327 327 327 328 328 328 327 327 327 327 326 326 327 323 332 336 338 341 341 342 342 343 344 343 341 339 338 336 335 335 334 333 332 332 331 330 329 329 328 328 328 327 327 326 328 326 325
282 282 282 282 282 282 282 284 285 285 285 285 287 290 292 293 293 293 293 294 295 296 297 296 296 297 297 298 300 304 309 315 320 321 322 323 324 324 324 325 326 327 327 328 328 327 327 327 325 328 329 326 325 328 333 335 335 341 341 343 345 344 341 337 336 336 335 334 334 333 332 331 331 330 329 328 328 328 328 327 327 328 328 326 326
282 282 281 282 282 282 283 283 283 283 283 283 285 286 289 291 292 293 293 293 294 295 295 296 295 294 295 296 299 303 307 313 318 320 321 322 323 323 323 323 324 325 326 327 327 327 327 327 327 329 329 329 325 322 326 329 327 335 340 342 344 345 342 339 338 336 335 334 333 333 332 330 330 330 329 328 328 328 328 328 328 329 327 326 326
282 281 281 281 281 281 281 281 282 281 282 283 284 287 287 289 291 292 294 293 292 294 295 295 292 291 291 292 295 297 301 307 315 319 320 321 322 322 323 322 323 324 325 325 326 326 326 327 327 327 328 328 329 328 326 326 328 332 341 340 344 345 341 341 339 338 334 334 333 332 331 331 330 330 330 328 328 328 328 328 329 328 327 327 328
281 281 281 281 281 281 281 281 281 281 281 282 283 284 286 288 290 291 291 293 293 295 295 296 292 293 294 292 289 292 299 306 313 317 319 320 321 321 321 322 322 323 323 323 324 324 325 325 326 326 327 327 328 328 328 323 327 322 331 333 340 343 342 340 339 337 335 333 332 332 331 330 330 329 329 328 329 329 328 327 328 328 327 327 327
280 280 280 280 280 280 280 280 280 281 281 280 281 283 285 287 289 291 292 290 291 292 294 295 295 292 287 290 292 292 290 294 304 311 317 318 319 319 319 320 321 321 322 321 322 323 324 325 325 325 326 326 327 327 328 329 324 314 318 325 328 339 341 340 339 337 335 334 332 332 331 330 329 329 329 328 330 329 328 329 328 327 327 327 326
280 280 280 280 280 280 280 280 280 280 280 279 279 281 283 285 289 290 291 291 290 292 293 294 295 296 291 288 287 288 289 296 296 298 310 314 317 318 316 318 319 319 319 320 322 322 322 322 324 324 324 324 325 325 325 326 326 321 322 318 324 329 332 339 338 337 336 335 333 331 331 330 329 329 328 328 329 329 328 329 328 328 328 328 328
279 279 279 280 279 279 279 279 279 279 279 279 279 280 282 286 289 291 291 293 293 292 291 293 294 295 296 294 292 288 289 291 292 288 301 306 309 316 316 317 317 316 317 318 319 319 318 320 321 321 322 322 322 322 323 324 321 324 325 326 324 329 329 332 335 337 336 334 334 332 331 329 329 329 329 329 329 329 329 328 328 328 328 327 328
278 279 279 279 279 279 279 278 278 278 278 278 278 279 281 283 287 290 291 292 293 291 291 291 291 293 294 295 295 295 295 292 288 292 290 298 305 308 314 316 316 315 315 315 316 317 317 318 319 319 320 319 320 319 320 322 317 318 314 316 320 324 326 327 329 332 334 335 334 333 332 330 329 329 330 329 329 329 329 328 329 329 328 328 328
278 278 278 278 279 278 278 277 277 277 278 278 278 279 280 283 287 290 291 292 292 291 292 292 289 289 293 292 294 295 296 296 295 291 290 290 293 304 309 313 314 315 315 314 314 315 317 317 318 318 318 318 319 319 318 318 320 320 317 315 321 324 326 325 325 324 327 330 333 333 333 331 330 330 330 329 329 329 329 329 329 329 329 328 329
278 278 278 278 278 278 277 277 276 276 278 278 277 278 278 279 283 287 290 290 291 292 293 292 291 290 289 289 292 293 293 294 293 293 291 290 292 297 304 307 311 313 314 315 315 315 315 317 317 317 316 317 318 318 318 318 320 321 316 315 319 323 323 323 323 322 322 325 329 330 331 332 332 331 330 329 329 329 329 329 329 329 329 329 329
277 277 277 277 277 277 277 276 276 276 277 276 276 277 278 280 283 288 289 289 291 291 292 293 292 292 291 291 289 291 291 291 291 291 292 293 291 293 302 304 304 308 312 313 314 314 315 316 315 316 316 318 318 318 318 318 317 319 317 314 317 319 321 323 323 322 322 323 323 325 328 329 331 331 331 331 330 329 329 329 329 329 328 329 329
277 277 277 276 276 277 276 276 276 277 276 275 275 276 277 281 285 286 288 289 290 290 291 292 293 292 292 292 291 291 289 288 289 290 292 292 294 298 302 306 307 306 309 312 312 314 315 316 316 316 316 317 317 318 318 317 311 312 310 314 317 318 321 323 322 321 321 322 322 322 324 325 327 329 331 331 331 330 329 329 329 329 328 328 329
275 275 275 275 276 275 276 275 275 275 275 275 275 276 277 278 278 281 286 289 288 288 289 290 293 293 293 293 292 293 292 291 292 292 291 290 291 291 296 305 306 307 308 311 313 313 314 315 316 316 317 317 317 317 318 317 315 306 310 311 316 317 320 320 320 320 321 320 320 320 323 323 324 325 327 327 329 330 330 330 329 329 330 329 329
274 274 275 275 275 274 274 274 274 275 275 275 275 276 276 276 277 280 285 285 285 286 286 287 290 292 292 293 293 292 292 294 294 293 293 294 291 289 290 296 304 304 304 310 308 312 314 314 315 316 316 316 316 316 317 317 314 308 310 309 314 315 316 318 318 320 319 318 318 319 321 323 322 324 326 326 328 328 328 329 329 330 330 329 330
274 274 274 275 275 275 275 274 275 274 275 275 275 275 276 276 277 279 281 282 284 285 285 286 289 291 292 291 291 292 293 293 293 294 293 292 292 291 291 293 303 304 298 306 306 308 307 313 314 315 315 315 316 316 316 317 314 306 308 312 313 313 315 318 319 318 317 317 317 317 317 318 321 323 324 326 327 328 329 329 330 329 329 331 331
274 274 275 274 274 274 274 274 274 274 274 274 275 275 275 275 275 277 279 282 283 284 285 286 288 290 290 290 291 292 293 293 293 293 294 294 293 293 293 291 296 301 301 298 306 309 308 310 313 314 314 313 314 314 315 315 311 306 306 316 316 310 314 317 318 317 316 316 316 316 316 317 319 321 322 322 325 325 328 329 329 330 329 329 329
274 274 274 274 274 274 274 273 274 274 274 274 274 273 274 274 274 277 278 282 282 283 284 286 287 289 290 291 291 292 293 293 293 294 294 295 295 295 295 293 293 296 301 300 304 306 310 307 304 310 311 312 314 314 310 310 313 305 306 316 316 313 311 314 316 317 317 316 315 315 315 315 316 317 319 319 319 320 321 322 324 324 323 324 325
274 274 274 274 274 273 273 273 273 273 273 273 273 273 274 274 275 276 277 279 281 283 284 284 286 289 291 291 291 292 292 293 293 293 294 295 295 296 297 295 295 298 298 298 302 304 305 309 305 305 311 311 312 313 312 312 308 308 315 315 315 315 311 313 315 316 317 316 315 316 314 314 315 316 316 317 318 319 321 321 322 322 322 322 324
274 274 274 273 273 274 273 273 273 272 273 273 273 273 274 274 273 274 276 279 282 282 283 284 285 288 290 291 291 292 293 293 293 294 294 295 295 296 297 297 297 297 302 300 301 306 305 307 308 304 306 308 310 312 313 312 304 310 314 315 315 315 308 310 313 314 315 314 316 316 314 314 315 315 315 316 317 318 320 320 320 321 322 323 326
273 273 272 272 272 272 272 272 272 272 272 272 273 273 273 272 273 275 278 280 280 280 282 284 285 287 289 290 291 291 292 293 293 294 294 294 295 296 297 298 298 298 302 305 301 303 307 305 306 304 305 305 309 310 312 311 306 311 314 314 315 309 305 309 309 312 313 313 314 314 313 313 314 314 314 315 316 317 319 319 318 319 321 322 325
272 272 272 272 272 272 272 272 272 272 272 272 272 272 273 273 274 274 275 278 279 280 282 283 284 286 288 289 290 291 292 292 293 293 294 295 296 296 297 297 298 299 301 306 304 302 306 308 307 305 306 304 305 307 306 309 307 306 314 314 313 303 309 312 308 309 310 312 313 313 313 313 314 314 314 314 316 317 317 317 317 319 320 321 322
272 271 271 272 272 272 271 272 271 271 271 272 272 272 272 272 272 273 273 274 276 278 280 281 283 284 286 289 290 290 291 291 292 292 293 294 295 296 297 297 298 299 300 305 305 303 304 307 307 306 306 305 304 306 305 305 305 307 309 312 311 310 311 312 311 305 308 310 312 313 313 313 313 314 314 313 314 316 316 318 318 317 318 320 322
272 271 271 272 272 272 271 271 271 271 271 271 271 271 271 271 271 272 272 273 274 277 279 279 281 283 286 289 289 290 291 290 291 292 293 294 295 295 296 297 298 299 301 304 306 304 300 301 303 306 305 306 304 304 305 304 305 304 306 308 310 311 312 312 312 310 307 309 311 312 313 312 313 314 313 313 314 315 316 317 315 314 315 318 318
271 272 272 271 271 271 271 271 271 271 271 271 271 271 271 271 270 271 272 274 275 277 278 279 280 282 284 287 288 289 290 290 290 291 292 293 294 294 295 297 298 299 302 305 304 300 299 299 302 302 302 304 305 303 304 306 306 306 305 305 307 309 310 311 312 311 306 309 311 312 312 312 313 313 312 313 313 313 314 315 314 313 314 315 316
271 271 271 271 270 270 269 269 270 270 270 271 271 272 271 271 271 272 273 274 275 277 278 278 279 280 282 285 288 288 289 288 289 289 291 292 293 294 295 297 298 300 302 304 302 302 300 298 298 301 303 304 304 305 305 305 305 304 305 305 305 308 307 309 311 310 308 309 310 311 311 311 312 312 312 312 312 312 313 313 312 313 312 312 312
270 269 269 269 268 268 268 268 269 269 269 269 270 270 271 272 272 272 272 272 272 273 275 278 279 279 281 283 286 288 288 287 287 288 290 290 292 293 295 297 298 300 303 305 302 302 302 299 299 301 303 304 303 303 303 302 302 302 301 303 305 306 305 306 309 310 305 307 308 308 309 310 311 311 312 312 312 312 312 312 312 311 310 311 310
267 267 267 267 267 266 267 267 267 268 268 269 269 269 270 270 270 270 270 270 271 272 273 276 278 279 280 282 286 288 288 287 287 288 289 290 291 293 294 296 298 301 302 302 302 301 301 300 299 299 301 301 299 300 302 303 301 298 299 299 300 301 301 301 304 308 309 310 311 310 307 307 308 310 311 311 311 311 311 311 310 309 308 307 308
266 265 265 265 266 266 266 266 266 267 267 268 268 269 269 269 269 269 270 270 271 272 273 275 277 278 280 283 285 287 287 288 287 287 288 289 290 291 293 295 298 300 301 300 301 301 300 299 299 300 299 300 300 298 300 302 302 301 298 296 297 295 302 303 301 304 307 309 308 307 309 309 307 309 308 309 310 310 310 309 309 308 306 305 306
264 264 264 264 265 265 265 266 266 267 267 267 268 268 269 269 269 269 269 270 270 271 273 274 276 278 279 281 283 286 287 288 287 287 287 287 288 287 290 293 297 301 300 299 300 300 298 298 298 298 299 298 297 298 299 300 299 299 300 301 298 296 299 301 302 302 303 307 307 307 306 306 306 307 307 308 308 309 308 307 306 306 303 305 306
264 264 264 264 264 264 265 266 266 267 267 268 268 269 269 269 269 269 270 270 270 270 271 273 275 277 279 281 284 286 287 288 287 287 287 287 286 286 287 290 294 301 299 298 299 299 298 297 297 298 298 296 296 294 296 298 298 299 300 302 300 300 300 300 298 300 300 303 302 301 301 304 305 306 307 309 309 307 306 305 305 301 302 305 306
263 263 263 264 264 264 265 265 266 267 267 268 270 273 274 271 271 271 272 272 272 273 273 274 275 277 279 281 283 285 286 286 287 286 287 287 287 287 288 289 291 298 297 297 298 298 297 296 296 296 295 295 294 296 297 299 301 301 300 300 299 296 297 297 294 292 296 301 298 299 298 295 302 300 299 306 307 305 307 306 308 305 303 306 306
262 263 263 264 264 264 265 265 265 266 267 268 272 274 275 276 274 272 272 273 274 274 274 275 275 277 279 280 282 283 285 286 286 286 287 288 288 288 288 289 290 294 297 297 297 297 297 297 296 296 296 294 295 298 299 299 300 300 301 302 300 296 296 295 294 294 291 300 300 300 296 292 297 299 298 300 304 303 304 305 305 303 304 306 306
262 263 263 263 264 265 265 266 266 266 267 271 273 274 275 276 276 273 273 273 273 273 273 274 276 278 279 281 282 283 284 285 285 286 286 287 287 288 288 289 291 293 298 299 298 297 296 297 296 296 296 295 296 298 299 299 299 300 301 301 298 296 296 297 298 296 297 295 300 299 298 291 292 299 297 300 300 302 304 305 304 304 305 306 306
263 263 263 264 264 265 265 265 266 266 267 271 273 275 275 276 277 276 273 273 273 273 273 274 275 278 280 280 281 283 284 285 286 286 286 286 287 287 287 289 291 293 297 299 299 299 299 297 296 296 297 298 297 298 299 300 301 299 299 299 297 298 298 298 299 298 292 295 300 298 297 292 292 294 296 296 296 299 303 304 304 304 305 305 305
263 263 263 263 264 265 265 266 266 267 267 271 274 275 275 276 277 276 273 273 273 273 273 274 275 277 278 280 280 281 283 285 285 286 286 286 286 287 287 289 292 294 296 298 298 297 298 299 298 297 300 300 298 300 299 300 298 298 298 297 296 297 297 298 298 294 293 297 300 298 296 292 292 294 294 295 294 297 299 302 304 304 305 305 305
263 263 263 263 264 265 266 266 267 267 268 273 275 276 276 277 278 277 274 274 274 274 274 275 276 277 279 280 281 281 282 284 285 286 286 286 286 286 286 286 290 296 299 300 301 301 300 302 300 301 301 301 301 301 301 302 299 300 300 297 296 296 293 290 290 291 292 295 296 297 296 292 292 293 293 295 294 298 298 301 303 303 304 304 304
264 264 265 265 265 265 266 267 267 267 268 274 275 276 277 277 278 275 274 274 273 273 274 275 277 279 280 280 280 281 282 283 285 287 287 286 285 285 285 286 289 296 299 299 299 300 302 303 303 303 303 303 300 301 300 301 300 296 293 292 292 292 294 295 292 290 292 293 293 298 296 292 292 294 292 292 295 296 293 294 301 303 303 304 304
263 263 263 264 265 266 266 267 267 268 268 272 275 276 277 277 277 274 274 273 273 273 273 275 276 278 280 280 280 280 281 283 285 287 288 287 285 285 285 286 288 294 297 299 297 298 299 300 300 301 301 300 300 300 300 300 297 296 297 295 294 295 295 294 291 291 292 293 291 294 294 292 291 293 290 289 292 294 293 294 295 301 303 303 304
262 262 263 263 265 266 266 267 268 268 269 272 276 277 278 278 277 274 274 273 273 273 273 275 276 278 280 281 281 280 281 282 285 287 288 287 285 285 285 285 287 291 295 298 299 298 298 298 299 299 299 299 299 299 300 299 297 297 298 296 295 296 295 295 292 292 293 293 294 292 294 293 292 292 290 287 290 289 291 292 292 297 301 301 303
262 262 263 263 264 265 267 267 270 270 270 273 276 277 278 279 277 275 274 273 273 273 273 274 276 278 279 281 282 282 282 283 286 287 288 287 285 285 286 286 287 290 295 297 297 295 295 294 296 297 296 297 298 299 298 297 296 297 301 298 297 297 296 295 294 293 291 291 294 293 295 291 292 292 291 289 289 287 285 289 290 292 298 299 301
Wind_Speed
9 10 10 11 11 11 10 9 9 8 8 8 8 9 9 9 10 11 11 12 12 11 11 12 12 12 12 13 12 12 11 11 11 11 11 11 11 14 21 22 23 25 25 29 30 32 33 33 30 28 29 29 31 32 31 31 31 26 24 28 31 31 31 29 27 28 28 27 25 24 24 25 25 23 25 25 24 23 22 22 22 20 20 19 19
10 10 10 11 11 11 11 11 11 9 7 8 7 8 9 9 9 10 12 12 11 11 11 12 13 13 14 14 13 12 11 11 11 11 11 11 11 13 20 21 23 26 28 27 29 33 33 33 30 30 29 31 36 35 34 27 26 28 30 31 30 31 30 27 27 27 27 27 26 24 24 25 25 24 25 26 25 23 23 22 22 21 20 20 19
10 11 11 11 11 11 11 12 11 10 9 9 7 8 8 8 9 10 10 10 10 10 10 12 12 12 13 14 14 12 12 11 11 12 12 11 11 12 15 22 23 24 25 27 27 29 33 33 34 33 31 34 36 34 32 32 34 33 32 31 32 32 31 28 29 29 28 26 24 23 24 25 24 23 25 25 24 24 24 23 22 22 21 20 20
12 12 11 12 11 12 12 11 12 11 10 10 10 9 9 8 9 9 10 10 11 12 11 11 12 12 12 14 14 15 13 13 12 12 13 12 12 12 12 14 21 23 24 26 27 28 31 31 30 32 29 31 34 33 33 32 31 31 30 31 30 31 30 30 29 29 28 27 25 23 23 24 24 24 24 24 24 24 23 23 22 22 21 21 21
10 11 12 10 10 11 11 11 11 11 11 12 12 10 9 8 9 9 9 10 11 11 11 12 12 13 12 13 13 15 14 13 13 13 13 13 12 12 12 13 14 20 25 25 28 28 27 29 30 32 30 30 31 29 29 32 33 33 34 32 32 33 35 33 30 27 26 26 26 26 25 24 24 23 23 24 25 24 24 23 23 22 22 22 22
10 11 10 10 10 10 11 11 10 11 11 11 12 10 10 10 10 9 9 10 11 11 10 12 12 12 12 13 13 13 12 13 13 13 13 13 12 13 13 12 13 13 15 25 27 27 28 28 27 28 27 27 28 27 29 34 36 35 35 33 31 32 35 33 33 31 30 27 28 27 27 26 26 25 25 24 25 25 24 23 23 24 23 22 22
9 9 9 10 12 13 13 11 12 11 10 10 11 11 10 11 9 10 10 9 10 10 10 11 12 14 13 13 13 13 12 13 13 14 14 13 13 13 13 12 13 13 14 13 21 29 29 29 28 25 22 22 27 28 33 36 35 35 36 33 33 36 34 32 32 32 33 30 27 27 26 26 26 27 27 26 26 25 25 24 24 24 24 23 23
9 9 11 11 11 11 11 12 14 12 11 10 10 11 11 11 10 9 11 11 10 11 9 10 10 12 11 13 14 15 14 14 14 14 14 13 12 14 13 13 13 13 14 13 13 17 28 28 29 27 25 25 26 29 31 35 38 39 34 36 35 37 34 34 35 34 33 30 28 27 27 26 27 28 26 26 26 25 25 25 25 24 23 24 23
11 11 10 11 10 11 12 14 14 13 11 11 10 10 11 11 12 10 8 11 11 12 11 10 11 12 13 14 15 16 16 15 15 15 13 14 14 14 14 14 14 15 13 13 13 13 20 29 28 28 25 23 25 23 28 33 35 34 32 35 36 39 33 34 34 36 30 28 28 28 28 28 28 27 27 26 26 26 26 26 26 24 25 23 23
11 11 10 11 10 11 11 13 14 13 13 12 12 11 10 11 13 11 9 10 10 11 12 11 11 12 14 15 15 14 16 17 15 14 13 14 15 15 15 13 13 14 15 14 14 14 13 20 29 29 28 24 25 24 27 32 35 35 38 39 38 40 34 35 32 35 29 31 29 28 28 28 27 29 28 27 28 27 26 28 24 26 25 24 24
11 12 11 11 11 11 12 13 12 12 12 12 12 12 11 11 12 13 11 11 10 10 11 11 11 12 14 16 15 16 15 15 14 12 13 15 15 15 13 14 13 15 16 15 15 14 15 14 14 16 19 28 27 29 27 29 33 35 39 37 40 39 37 36 36 32 30 27 28 30 30 29 28 29 28 28 28 28 26 27 27 28 26 25 26
11 12 12 12 13 12 12 12 11 12 13 13 12 10 12 13 12 13 15 14 11 9 9 9 11 12 14 16 15 15 17 16 17 16 14 14 14 13 14 14 14 14 16 16 15 15 15 15 14 15 16 20 25 23 28 29 29 32 36 39 42 39 39 37 38 34 30 32 32 30 30 31 30 30 29 28 28 28 27 28 29 27 27 25 25
10 11 11 12 11 11 10 9 10 11 11 14 13 15 15 13 14 12 14 14 13 9 7 6 9 13 10 12 14 13 15 17 19 18 16 14 13 14 14 14 14 15 15 14 15 16 15 16 15 14 14 13 17 25 26 27 31 31 35 37 41 42 40 39 37 33 33 32 33 32 31 32 31 30 29 30 28 28 30 29 28 28 27 25 27
10 10 11 10 11 10 9 9 10 10 12 14 14 14 15 13 12 13 10 12 12 11 7 4 7 8 11 14 15 14 12 15 18 20 18 16 14 15 15 15 16 15 14 14 15 16 16 15 14 14 14 14 14 15 18 21 25 31 38 38 43 42 42 42 40 40 37 35 33 32 31 31 31 32 30 30 30 30 30 30 29 28 27 26 26
9 11 11 11 11 10 9 9 9 10 13 12 13 15 11 14 13 13 13 11 12 11 8 7 9 5 6 10 11 12 13 10 10 17 19 17 15 16 16 17 18 15 13 12 13 15 15 13 13 13 14 14 13 14 15 18 20 34 37 38 39 44 45 44 44 43 37 36 35 33 32 32 32 32 31 31 31 31 31 33 30 28 27 27 28
9 10 10 11 12 12 11 10 9 9 10 13 14 13 13 12 12 13 12 14 12 12 8 7 7 3 6 3 7 7 12 11 12 12 16 20 18 17 15 16 16 16 13 14 14 14 15 13 15 14 14 14 13 13 14 14 22 19 33 42 36 38 39 43 43 43 38 36 35 34 34 35 34 33 33 34 32 31 32 31 30 28 29 29 29
8 8 8 10 10 10 11 11 11 10 9 12 14 14 16 15 14 13 13 14 15 12 10 7 8 7 6 5 6 6 9 11 12 16 9 12 18 18 16 17 16 15 14 15 15 14 13 14 14 13 14 13 13 13 11 13 13 14 18 31 41 38 40 43 44 43 43 41 38 35 35 35 35 34 35 33 33 33 33 31 30 29 30 29 27
8 9 9 9 9 10 10 11 12 9 9 11 11 15 15 14 12 12 14 16 15 14 14 7 8 8 10 10 8 9 9 9 9 10 12 8 10 14 17 18 15 15 12 13 14 12 12 13 13 13 12 12 11 10 11 11 12 12 11 17 36 43 41 41 43 43 43 45 40 38 36 37 35 35 34 33 33 32 32 33 33 31 30 28 28
10 9 10 10 10 9 9 10 11 9 12 11 12 14 12 14 14 12 13 14 16 17 16 11 6 7 8 9 10 10 10 8 10 9 13 11 5 9 14 17 16 16 15 14 14 13 10 10 11 11 10 8 9 8 9 10 13 14 18 19 30 32 40 37 40 40 40 40 38 39 39 36 36 35 34 34 33 32 32 31 30 30 30 29 29
9 10 9 10 11 10 9 10 10 13 12 11 11 12 12 15 14 13 15 12 15 18 15 12 10 8 8 9 9 9 9 10 12 11 12 14 19 14 10 14 15 16 16 14 12 12 13 11 10 10 9 10 9 10 7 8 9 12 11 18 31 34 32 35 33 33 34 35 40 40 37 37 36 36 34 34 33 34 32 31 31 31 31 31 29
8 9 9 10 9 11 13 12 11 11 9 10 12 13 15 17 16 15 13 12 13 15 17 15 10 10 6 7 7 8 8 10 10 8 11 11 14 18 13 6 9 12 13 13 13 11 11 12 11 10 10 10 10 9 9 8 9 11 16 21 19 29 34 34 35 34 30 31 35 38 38 37 36 34 34 33 33 33 32 31 31 31 31 30 29
9 8 9 10 11 10 11 12 11 12 10 12 14 15 15 16 18 15 13 15 12 14 17 15 11 10 8 7 6 6 7 8 9 9 11 12 14 15 14 13 10 10 12 14 14 13 11 10 11 10 9 10 10 10 10 9 5 11 18 28 22 19 24 25 26 33 35 32 31 33 35 35 36 35 34 34 33 33 33 32 31 30 30 29 29
10 9 9 10 10 11 11 11 12 11 12 12 12 13 16 16 13 15 15 16 11 13 16 16 12 10 9 8 9 10 10 10 10 9 8 8 9 13 17 16 17 14 11 13 12 12 12 11 12 13 11 10 10 12 12 10 9 9 24 27 30 23 24 26 25 25 28 30 30 30 31 31 32 33 34 33 32 33 32 32 30 30 30 30 28
10 9 12 8 9 9 9 11 11 10 12 12 12 14 16 15 15 16 15 13 12 11 14 16 16 11 10 8 9 9 9 10 10 9 8 10 9 14 14 12 11 8 6 10 9 10 11 12 12 11 12 11 11 12 14 14 11 17 14 21 28 28 24 24 24 28 27 29 30 30 29 29 27 27 28 33 33 33 32 32 30 31 31 30 29
11 12 11 10 10 10 10 9 9 11 12 12 14 13 16 16 16 19 16 14 12 13 13 17 17 13 9 9 9 9 10 9 9 9 8 8 8 9 13 17 15 8 6 11 9 9 11 13 12 11 11 12 12 11 13 14 13 18 19 17 26 30 26 25 27 28 27 26 27 28 28 27 25 27 29 28 31 31 31 31 30 30 30 29 30
12 14 11 13 11 9 13 11 12 12 13 14 13 13 13 15 17 17 15 15 12 14 14 16 17 17 10 8 9 9 10 9 9 9 10 9 10 11 10 13 18 12 3 8 6 9 5 8 11 12 12 12 12 12 12 16 18 21 20 16 20 27 30 27 27 26 26 28 27 25 23 24 23 24 25 27 28 31 32 30 31 31 30 30 29
14 11 14 14 14 12 11 12 13 11 13 13 13 13 14 13 15 17 13 13 11 13 12 16 17 16 12 10 9 9 9 9 9 10 9 10 11 11 8 13 15 10 8 4 11 14 11 7 11 12 14 14 13 13 13 13 21 29 23 17 16 27 27 30 28 27 26 26 24 23 24 25 25 23 22 23 26 28 29 30 29 29 30 29 28
13 14 15 13 14 15 12 13 13 12 12 13 13 12 13 13 14 12 15 10 13 16 14 12 17 18 14 10 9 10 9 9 9 10 10 10 11 10 10 12 15 10 9 9 10 12 13 9 1 8 12 13 15 15 16 17 17 30 24 15 16 18 25 27 27 27 27 26 26 25 24 21 20 23 23 22 22 23 24 24 25 24 23 24 23
11 13 13 13 14 12 14 13 12 12 13 12 13 14 13 15 13 12 12 15 14 13 13 11 14 16 13 11 11 10 9 9 10 10 10 11 11 11 12 13 16 14 10 12 13 12 11 14 13 7 12 13 14 13 16 13 17 23 18 17 17 15 22 26 27 26 26 27 28 27 24 24 25 23 21 20 21 22 21 22 21 21 21 20 19
11 13 13 15 13 13 13 13 13 12 13 12 12 13 13 11 13 15 14 15 13 11 11 14 13 14 13 11 10 10 9 10 11 11 11 11 11 12 13 13 12 15 12 14 11 11 13 11 11 12 9 14 14 16 16 16 21 22 18 17 17 17 24 26 26 25 24 25 27 26 24 24 26 26 25 24 22 22 22 23 23 20 19 18 18
12 12 13 14 13 14 13 12 13 12 11 13 11 13 13 14 14 12 13 11 12 13 11 11 13 14 14 14 12 11 10 11 11 11 12 12 13 12 13 13 13 14 18 13 13 7 10 13 8 10 14 12 14 14 15 17 21 22 19 18 17 22 27 23 26 25 23 24 24 24 22 22 23 22 23 23 22 23 21 20 19 18 17 17 18
13 13 15 14 15 15 11 13 15 12 13 11 13 13 12 13 10 11 9 13 15 13 13 11 10 13 14 14 13 11 9 9 10 10 10 11 11 12 12 12 13 14 17 17 16 14 11 14 12 11 15 14 12 14 12 13 21 26 18 17 19 23 18 17 25 27 25 25 24 23 23 23 23 23 22 22 22 22 19 18 17 18 19 19 20
11 15 15 14 14 14 14 14 13 14 13 12 12 10 12 12 12 13 15 16 17 14 12 15 13 14 15 15 12 11 10 11 9 9 10 12 12 11 11 11 13 14 15 19 17 15 10 11 13 14 14 15 11 13 15 15 14 12 17 18 19 17 15 14 16 24 25 25 25 24 23 23 23 23 22 21 21 20 18 18 19 20 20 21 22
11 14 14 14 14 13 15 18 13 13 12 14 12 12 13 14 15 14 15 16 18 17 14 14 14 12 14 13 12 11 10 12 10 11 10 11 11 11 12 12 13 13 16 18 16 18 16 9 12 11 13 15 16 13 17 18 17 13 14 14 17 20 17 15 14 15 24 24 26 25 24 24 23 23 22 22 20 18 20 20 20 21 20 22 21
12 12 17 15 15 19 17 20 18 16 15 15 13 15 14 16 17 16 15 16 16 14 13 14 13 13 14 14 12 10 9 10 10 10 11 12 11 12 14 12 13 14 16 19 11 13 17 14 14 17 15 14 15 16 15 18 17 16 16 16 16 14 15 17 15 13 22 24 26 25 23 23 23 23 21 22 20 19 20 20 22 22 21 20 22
16 19 14 19 17 17 21 19 19 17 17 16 16 16 17 17 17 17 16 16 15 15 15 13 12 13 14 14 11 9 9 10 10 9 10 10 11 12 14 13 13 15 16 17 11 15 15 15 12 16 16 18 12 16 15 14 17 14 14 14 14 15 14 14 15 13 18 24 25 24 23 22 22 22 22 22 21 20 21 22 22 24 22 21 22
18 16 17 17 17 18 17 18 19 18 17 17 18 18 17 15 16 17 17 15 15 16 16 14 14 13 14 15 13 10 9 10 9 9 9 12 11 12 13 12 12 13 16 16 13 14 16 18 15 13 15 14 13 14 16 16 12 12 9 13 16 16 15 13 13 15 19 22 22 23 22 21 21 22 22 21 20 20 22 20 21 22 21 22 22
18 18 17 17 16 19 18 19 19 19 19 18 18 18 17 16 17 18 17 17 17 17 17 17 15 13 14 14 13 12 11 11 10 10 10 12 11 12 13 12 13 14 16 16 14 15 16 18 18 14 14 14 11 11 14 17 16 12 11 9 10 11 12 11 10 12 12 12 12 15 18 18 22 22 22 22 22 20 22 22 20 21 21 21 21
18 18 17 18 17 17 19 19 19 19 19 18 18 18 17 18 18 18 18 17 17 16 16 17 15 14 15 15 15 14 12 10 10 9 9 11 10 11 11 12 14 16 15 14 15 18 17 15 15 18 15 13 17 15 14 17 18 18 17 12 11 6 12 15 13 10 12 13 14 17 16 16 18 18 21 22 22 21 21 21 21 20 21 21 22
18 18 18 19 19 17 18 18 19 18 18 18 18 18 17 17 17 17 17 18 17 17 16 17 16 15 15 15 14 12 12 12 10 9 9 9 8 11 11 11 14 17 15 13 16 18 16 15 15 15 15 15 10 12 13 15 14 12 15 18 17 13 12 11 13 15 12 14 13 12 14 15 16 17 21 23 22 22 23 22 22 21 22 22 23
16 17 18 19 20 20 19 19 19 18 17 17 15 14 15 17 17 17 18 18 17 17 17 17 17 16 15 15 15 13 14 14 15 13 12 11 9 10 12 12 15 16 15 13 15 17 17 16 15 15 15 14 14 14 15 16 17 19 15 15 17 17 15 13 8 9 12 13 10 8 9 11 12 11 12 13 15 21 20 22 19 23 23 23 23
16 16 16 16 17 20 20 20 18 16 16 14 18 26 24 17 16 15 15 16 17 16 16 17 16 15 15 13 13 18 17 17 16 16 17 17 17 13 12 11 13 14 15 15 14 16 18 17 16 15 15 15 16 19 20 20 20 17 16 14 14 10 12 12 7 3 10 14 12 12 9 5 10 9 7 11 12 17 13 15 13 16 21 24 24
16 15 15 17 20 18 18 18 18 16 15 15 26 26 27 29 21 18 17 17 17 17 16 17 16 14 12 13 12 14 17 16 14 16 17 19 18 17 20 23 20 17 14 17 17 17 18 18 16 17 18 18 19 20 21 18 14 18 19 20 19 17 16 16 15 5 4 14 17 15 9 5 9 12 9 8 10 10 11 13 20 22 24 25 25
15 14 16 18 17 17 16 17 17 17 17 22 28 28 28 29 26 19 16 16 16 16 16 18 16 14 13 12 10 9 11 12 11 10 12 16 18 19 21 26 27 27 26 21 20 18 20 19 18 18 19 20 20 19 18 18 19 19 18 16 17 19 19 19 18 18 13 12 15 14 13 4 5 11 10 10 9 11 13 18 23 25 26 26 26
14 16 16 14 17 19 17 17 17 18 18 23 26 28 28 28 28 24 17 17 17 17 16 17 17 15 10 10 10 10 10 16 13 11 10 11 13 17 19 26 27 26 28 28 28 24 21 22 22 21 22 21 22 20 21 23 22 22 18 18 19 20 20 19 16 13 8 12 15 14 15 7 6 9 11 7 6 8 11 19 26 26 27 26 25
15 15 15 16 16 16 16 16 17 17 18 23 28 28 28 28 28 24 17 17 17 18 18 17 16 16 14 11 11 11 11 11 10 9 9 9 10 11 13 14 15 18 27 28 28 29 27 23 23 23 21 21 23 23 22 21 21 21 21 20 20 19 19 18 10 9 9 12 17 15 12 8 7 9 11 7 5 7 9 15 23 25 26 25 24
15 16 16 16 16 15 15 15 16 17 16 26 27 29 28 28 28 24 17 16 16 17 17 17 18 18 15 13 13 12 11 11 9 11 9 9 9 10 12 14 16 14 18 21 21 19 19 17 19 20 19 19 21 21 19 19 24 22 22 21 19 16 10 11 10 9 8 9 8 11 15 10 6 10 9 9 7 8 8 13 20 23 24 25 26
15 14 14 14 15 17 16 15 15 16 16 27 27 28 28 28 28 17 14 15 16 17 17 17 17 15 13 13 12 12 13 12 14 18 14 8 8 12 13 13 15 13 16 19 22 21 21 20 21 22 20 21 18 20 22 20 17 11 13 12 12 12 14 14 11 8 10 8 7 14 10 9 6 11 8 5 8 8 5 5 14 20 23 25 26
16 17 16 16 16 17 19 17 16 16 16 24 29 28 27 28 22 13 13 13 14 16 16 16 16 16 13 12 10 11 12 13 16 18 17 13 9 11 12 13 14 12 14 16 23 27 28 28 29 30 29 30 30 31 31 29 21 20 18 17 17 16 17 15 9 10 12 11 7 8 8 11 7 7 6 3 6 7 7 7 6 16 22 24 25
17 17 17 16 16 16 18 18 16 17 16 21 30 29 27 26 22 14 11 12 14 14 15 16 14 14 13 21 18 14 14 14 18 20 18 13 10 11 11 11 14 12 13 14 14 17 24 24 25 25 26 28 30 32 32 30 30 25 22 22 20 18 19 18 18 16 12 12 13 9 11 12 11 7 8 4 3 1 4 4 5 9 16 17 21
15 14 15 16 16 16 16 17 24 22 16 18 28 27 27 25 19 12 9 8 12 14 13 14 14 13 13 14 21 18 15 16 22 20 20 15 10 11 10 10 13 12 13 13 17 15 11 9 11 13 13 21 24 22 22 31 32 27 25 25 20 19 20 18 15 12 10 10 14 14 15 9 15 11 12 7 6 2 1 2 4 4 8 8 10
Wind_Direction
339 336 332 330 326 326 323 319 315 312 314 312 316 316 318 319 319 315 312 308 305 301 299 289 276 262 253 252 245 240 236 231 230 231 230 231 232 230 227 229 229 229 232 234 232 231 229 226 222 216 213 213 214 214 213 207 197 184 182 184 180 179 176 174 169 168 168 167 167 167 164 160 158 159 157 155 155 159 157 154 156 158 160 158 156
336 334 332 327 326 323 321 319 316 311 305 306 309 309 311 314 313 312 310 307 300 299 299 292 284 272 260 252 245 242 238 233 229 229 230 229 231 234 229 228 230 230 231 232 234 232 231 229 223 218 215 217 215 216 214 208 193 191 188 189 186 182 175 171 170 169 168 168 169 168 165 161 162 161 159 159 159 158 156 153 157 159 162 162 160
338 334 329 325 324 321 318 316 311 309 307 299 299 301 304 304 308 309 307 304 301 299 296 291 285 278 266 253 246 242 238 235 232 229 229 228 230 233 232 229 229 230 231 231 232 233 232 231 228 222 218 220 221 218 214 203 200 194 190 192 187 183 178 178 171 169 169 168 166 164 164 164 161 162 161 160 159 158 157 155 161 163 163 163 164
337 333 329 325 322 319 315 313 309 307 303 301 300 297 296 296 299 300 302 300 300 300 297 292 289 281 274 266 255 246 238 235 235 230 228 228 227 228 231 231 228 230 230 232 232 233 234 232 230 227 221 221 221 214 212 207 205 196 192 189 191 185 180 175 170 170 168 166 163 163 165 164 162 163 162 160 159 156 158 162 164 163 162 163 165
333 327 322 318 315 313 310 308 305 302 302 300 298 296 294 296 296 300 300 302 298 299 300 295 290 287 279 268 260 249 242 237 235 233 230 227 226 226 227 229 228 228 229 229 233 231 232 233 230 231 226 224 222 221 219 209 203 201 194 190 192 185 176 174 169 169 165 162 165 166 166 167 166 164 162 160 161 158 163 165 165 164 165 167 165
326 322 320 317 316 313 313 308 301 299 298 299 299 296 294 296 298 300 299 301 302 301 302 300 297 293 285 276 265 257 249 239 232 231 232 230 227 226 226 225 225 224 227 229 230 232 231 231 234 233 225 221 221 215 215 211 204 198 197 195 191 184 178 170 169 169 168 166 165 167 167 168 165 164 165 162 161 164 166 165 166 167 166 165 166
320 318 325 329 325 320 316 312 308 301 298 296 294 295 294 292 297 297 295 295 296 297 298 296 299 298 294 288 273 263 252 246 238 232 230 230 228 227 226 225 221 221 223 224 230 231 230 229 229 234 232 216 218 220 217 215 212 205 199 194 191 181 174 170 169 169 170 168 168 166 165 166 166 167 168 165 164 163 166 166 165 164 165 170 167
333 338 331 327 323 319 318 315 312 308 304 297 294 293 294 292 288 288 297 295 295 296 297 294 291 291 291 290 285 270 257 247 242 236 229 229 226 226 223 222 221 220 220 223 224 227 230 232 229 229 231 224 217 212 215 214 210 202 195 191 187 181 177 172 173 171 170 168 168 164 164 165 167 170 167 164 165 163 163 164 165 165 168 165 165
340 335 328 323 321 321 319 318 316 311 306 303 295 290 290 290 289 284 279 289 292 292 295 295 296 294 294 290 286 282 261 249 242 237 230 226 225 225 223 222 219 220 221 223 223 227 227 228 231 226 227 227 219 208 215 213 214 206 196 192 186 181 179 173 174 173 168 167 166 164 164 166 168 168 167 167 166 164 165 166 166 167 165 165 167
337 334 327 323 319 316 315 315 313 312 308 305 300 294 284 282 285 284 281 283 286 290 293 294 294 295 293 290 286 282 273 254 240 232 228 226 226 225 225 226 221 220 222 222 223 224 227 227 227 228 225 222 217 212 210 215 213 207 205 198 188 186 181 173 173 172 168 165 164 164 164 167 169 169 168 167 168 168 166 167 167 167 165 166 168
334 331 328 322 317 315 314 313 311 308 308 305 302 297 290 280 276 284 285 278 277 281 285 290 291 291 291 290 286 280 276 264 250 234 229 227 225 224 225 225 224 222 223 222 222 222 222 223 221 221 224 220 218 214 214 216 215 207 199 190 186 184 179 175 172 171 164 162 165 166 168 166 165 168 169 168 169 168 167 167 168 168 165 167 167
332 330 326 324 320 316 313 313 318 320 316 311 308 306 302 294 285 287 288 286 274 272 276 283 287 286 289 288 281 276 272 264 250 238 230 229 227 222 223 223 221 223 223 222 221 221 220 219 216 217 216 215 212 215 223 222 218 209 202 196 185 179 176 174 172 168 163 163 163 162 165 169 167 167 169 169 170 170 169 168 170 167 166 165 163
329 327 321 316 309 305 305 315 316 311 307 301 302 301 298 293 291 284 280 280 281 272 261 267 292 295 289 285 293 287 283 275 253 239 231 227 224 221 219 221 220 219 219 221 218 218 218 215 212 211 209 208 207 207 213 220 215 209 205 199 189 179 176 173 169 165 163 162 161 161 164 169 170 169 167 169 171 171 171 171 169 166 167 164 163
321 319 312 307 308 308 308 306 313 308 301 299 297 293 293 291 289 285 270 270 274 275 261 270 277 281 311 314 304 296 277 274 261 239 230 224 221 219 215 217 218 217 216 217 216 216 217 213 206 201 199 201 202 202 212 217 209 207 203 202 189 180 178 175 169 167 165 164 161 162 164 166 169 167 167 171 173 173 171 172 169 167 168 166 163
313 317 318 316 314 310 307 309 306 308 305 301 299 296 296 293 289 284 286 272 271 272 258 210 265 273 278 296 294 309 311 296 270 248 229 223 218 218 215 214 217 213 211 211 213 211 212 209 202 197 195 193 193 201 207 214 215 204 202 200 192 182 179 175 170 167 163 163 164 164 166 168 170 170 170 172 174 173 173 172 170 169 170 169 166
313 315 313 310 310 309 307 306 304 306 307 306 303 299 295 291 288 283 281 282 274 272 239 217 211 247 290 219 303 321 303 291 287 258 235 224 217 217 214 214 213 212 208 210 210 206 206 203 201 197 194 192 188 197 205 213 215 228 214 189 198 184 178 175 170 166 162 161 162 166 169 169 171 171 172 173 174 174 174 173 173 170 172 170 167
300 295 295 299 301 302 306 305 307 307 304 300 300 297 294 290 283 282 279 276 277 270 262 211 215 193 212 289 294 258 246 278 349 309 273 244 221 212 208 208 208 206 205 210 206 204 201 199 198 193 190 189 188 193 199 205 216 210 217 206 187 186 178 173 169 165 164 164 166 167 166 168 170 172 174 175 174 174 175 174 171 172 173 169 168
298 299 297 296 295 298 300 303 303 302 299 295 290 292 289 290 294 296 287 278 274 272 270 231 210 206 206 212 210 257 287 301 321 293 309 290 287 224 205 204 202 200 205 206 203 201 195 192 189 189 184 180 181 182 186 189 195 194 193 213 195 177 171 170 167 166 164 163 164 168 168 169 171 172 174 175 174 174 176 174 172 173 173 170 170
303 301 300 300 299 296 294 296 297 299 299 293 292 291 293 290 287 281 282 285 275 267 260 254 224 224 210 219 226 234 244 262 268 290 299 303 282 273 221 199 193 191 195 201 200 193 189 185 182 177 173 164 160 163 168 183 180 184 176 196 192 176 164 166 163 165 166 166 167 169 169 170 170 172 174 174 175 176 175 174 173 174 173 172 172
295 297 296 297 299 298 296 295 295 294 295 290 290 293 290 286 280 279 281 278 279 269 260 250 231 239 196 216 222 227 231 241 251 255 274 285 298 291 276 212 191 193 187 186 192 191 182 178 177 172 162 161 161 153 159 160 162 160 158 177 193 164 163 158 159 162 165 164 168 168 170 171 172 173 173 174 175 176 175 174 174 174 173 173 172
287 289 291 289 293 297 299 296 292 288 288 289 287 287 286 285 282 278 277 284 283 279 263 250 231 233 195 231 228 234 235 234 238 229 246 269 271 277 270 258 211 193 189 185 184 187 182 175 172 169 163 161 158 152 150 155 169 159 150 142 175 162 156 157 159 158 159 165 167 169 170 171 172 171 172 174 175 175 174 174 174 173 172 172 173
297 286 286 289 291 290 289 289 289 290 290 288 288 287 284 280 273 269 276 278 279 281 274 257 236 235 206 216 223 237 241 248 236 232 240 226 254 271 266 223 206 204 183 182 185 183 180 169 165 167 173 161 156 152 147 153 177 164 153 147 155 154 144 149 160 159 159 165 168 168 169 171 172 172 173 174 174 174 174 174 174 173 173 175 175
298 291 283 286 285 285 285 284 285 286 286 286 285 286 282 279 288 292 281 276 277 284 285 271 249 238 216 210 224 230 238 240 249 240 243 256 265 265 254 234 211 185 198 180 182 180 175 174 174 171 170 167 158 156 150 156 159 171 149 150 149 150 148 152 157 162 162 160 161 166 168 168 171 173 175 174 174 173 173 174 175 174 175 176 175
291 290 290 282 282 280 278 281 280 280 281 285 283 283 287 295 291 285 282 281 284 287 287 284 262 243 229 216 225 230 232 239 245 243 238 246 243 264 280 273 250 218 183 182 174 172 173 175 175 174 170 162 161 161 155 152 156 153 147 149 147 144 149 150 159 155 159 160 163 167 165 169 172 171 172 174 173 174 174 176 176 175 176 176 174
294 294 289 291 290 289 284 279 280 279 281 281 282 281 286 286 284 279 276 283 286 285 287 286 279 251 231 223 224 224 234 236 244 246 244 244 232 265 266 278 260 212 203 173 178 186 183 177 175 172 165 162 160 162 157 154 149 162 151 157 152 146 152 155 156 156 160 164 164 164 166 166 170 172 172 175 175 176 173 174 176 176 176 176 177
295 293 296 298 292 284 285 280 279 279 281 281 279 277 278 279 280 281 284 284 284 281 280 282 279 261 240 229 223 225 234 231 236 244 247 242 244 241 267 277 263 218 181 170 156 163 202 188 176 168 162 163 161 160 167 157 152 156 152 155 153 151 151 157 158 160 164 163 164 162 160 163 169 175 173 176 177 175 174 174 177 177 177 178 179
292 292 296 295 293 288 282 280 280 278 279 279 278 278 278 280 278 280 278 274 276 277 274 280 279 264 242 234 235 229 235 232 228 238 241 239 239 241 236 267 267 216 180 175 165 183 170 179 177 171 169 161 161 163 165 168 156 152 153 153 156 158 156 158 160 163 166 164 158 157 162 168 168 169 178 177 176 178 175 175 177 178 179 179 179
290 293 291 290 289 289 283 277 276 274 274 274 276 277 276 272 271 267 268 272 275 273 274 278 280 269 246 238 238 234 236 236 232 237 236 240 239 241 230 241 264 246 182 174 179 182 167 152 162 182 168 164 163 162 165 161 163 148 151 156 154 162 161 159 161 164 166 162 156 160 165 168 170 168 173 178 178 177 175 175 177 179 178 180 180
289 291 290 288 284 281 282 280 276 273 272 272 272 272 271 267 265 273 276 279 271 268 274 276 278 276 253 238 239 239 236 238 238 234 238 239 239 238 228 233 247 256 207 177 184 170 179 169 161 195 176 168 161 160 155 160 160 154 154 155 158 160 164 161 163 166 168 165 159 164 167 168 169 168 175 177 175 177 175 174 178 179 179 181 180
288 289 289 287 285 281 279 278 276 273 269 270 268 268 273 276 277 273 269 267 265 268 267 271 273 273 260 243 240 243 233 239 238 236 235 238 239 235 235 232 236 256 244 187 187 180 169 185 170 161 191 168 164 158 156 158 164 157 154 155 157 159 163 164 164 165 168 166 161 165 170 171 172 172 173 174 177 178 178 178 178 180 180 180 178
286 287 287 286 282 282 277 275 275 272 269 270 270 270 269 269 266 265 261 259 266 267 264 261 267 267 259 247 241 243 236 240 240 239 238 239 237 237 239 234 237 245 255 215 179 198 168 173 179 166 163 173 164 161 160 158 165 159 155 157 159 160 162 164 164 165 166 165 162 165 171 172 174 174 174 174 177 179 179 177 175 175 174 172 170
284 284 283 281 281 279 274 274 276 272 271 267 266 268 267 268 272 274 276 274 269 265 266 266 272 274 269 251 239 240 237 240 244 245 247 243 241 241 238 238 240 242 253 236 189 179 181 176 169 162 162 161 160 156 156 160 167 162 158 159 158 156 161 164 169 169 168 165 165 166 171 173 177 176 176 175 179 180 176 172 168 167 168 168 167
285 285 281 278 279 277 279 275 273 273 272 269 266 265 268 269 267 269 272 272 273 270 267 271 269 270 268 255 240 238 238 243 242 242 243 244 245 243 241 241 240 246 248 245 200 177 177 175 161 163 164 154 157 161 154 157 163 170 162 157 153 156 161 166 171 173 171 168 165 168 171 175 177 176 174 175 178 178 172 168 165 165 168 169 169
281 283 281 283 281 281 284 284 277 272 271 271 266 265 266 266 266 266 265 263 261 261 261 265 269 271 272 254 236 235 233 244 242 243 242 247 243 244 243 236 240 244 245 245 213 173 171 157 160 159 157 162 151 167 160 160 166 161 160 157 159 160 164 164 168 175 173 171 167 170 173 174 176 174 173 174 175 173 171 169 166 165 171 173 174
285 282 292 290 288 290 289 289 287 285 281 277 274 271 266 266 266 264 262 262 258 259 258 257 261 271 276 265 244 234 232 241 244 248 251 251 250 249 248 242 242 243 248 240 213 172 160 164 161 158 161 167 165 164 169 166 163 160 157 158 160 162 161 163 166 171 175 170 169 169 172 174 174 172 172 172 174 173 171 170 168 169 180 176 170
299 298 295 295 294 294 293 291 287 286 285 285 283 277 272 266 265 263 261 262 264 264 261 258 261 268 271 269 243 230 231 241 245 248 248 248 249 251 248 245 243 247 244 229 211 166 161 149 171 162 167 161 169 163 161 161 157 160 161 154 156 159 160 164 164 166 174 170 168 167 171 174 174 172 171 173 175 176 173 173 174 174 179 173 167
303 301 298 298 294 294 293 293 290 288 285 283 280 277 275 272 270 271 270 271 271 272 271 267 261 257 260 267 270 249 236 240 245 248 247 248 248 249 249 248 246 245 239 214 193 175 160 159 159 169 165 164 158 161 156 154 159 150 146 155 161 162 161 164 163 165 168 169 166 166 171 173 173 172 173 173 176 179 176 176 177 177 176 169 166
305 300 298 297 296 293 292 290 289 286 284 281 276 273 271 271 272 272 270 267 263 260 260 260 255 250 256 259 260 252 241 241 245 246 252 255 256 255 252 251 249 244 230 205 181 172 166 163 158 157 164 154 147 159 163 156 151 145 145 147 142 144 145 146 164 161 161 168 169 171 173 175 176 174 174 174 175 178 176 177 182 177 171 167 165
300 299 297 295 292 290 289 288 286 284 281 278 275 272 270 268 266 266 267 265 262 259 256 253 252 252 252 251 250 242 237 239 240 241 251 263 265 267 262 262 256 243 217 196 174 165 166 160 163 159 159 161 157 160 167 162 159 156 150 143 147 154 161 159 161 164 162 170 178 175 175 175 179 177 175 176 178 176 178 174 179 180 169 167 166
299 296 296 295 293 289 288 286 284 283 279 276 273 269 266 265 264 264 265 266 263 260 259 257 256 253 252 257 264 264 252 242 234 233 240 254 271 280 280 279 267 235 205 189 170 162 159 161 164 166 160 156 157 151 149 155 155 156 162 158 159 161 164 164 166 163 167 166 175 177 176 171 176 180 179 181 179 178 180 175 177 177 172 169 169
295 291 291 291 290 290 288 285 283 280 277 273 271 267 264 261 260 259 262 261 259 258 258 256 254 249 246 247 247 244 240 239 240 240 244 251 259 272 273 278 276 231 195 184 170 159 156 160 165 162 158 157 151 146 151 157 167 169 174 170 163 163 158 155 170 167 160 165 163 160 175 178 173 180 179 185 187 182 180 174 176 177 173 171 170
290 289 287 283 286 291 290 289 285 281 276 273 269 270 266 262 260 260 258 259 259 256 256 256 252 246 243 243 251 260 267 262 252 249 255 259 260 257 271 280 285 242 193 178 171 161 157 160 164 161 159 161 158 163 164 174 171 160 157 157 152 147 147 154 135 196 165 153 156 172 181 170 164 171 174 189 192 181 179 175 175 176 175 173 173
289 286 284 290 294 290 287 284 283 279 274 270 272 271 270 267 266 266 266 265 264 267 269 264 257 252 246 246 247 249 253 254 252 252 258 262 268 275 276 275 268 263 203 179 169 164 160 161 164 164 164 164 169 170 169 164 159 161 168 170 160 155 159 157 172 193 263 172 167 170 178 190 165 174 177 182 183 185 171 177 170 174 176 176 175
292 291 292 289 284 287 286 282 278 277 275 275 275 274 272 269 267 265 263 262 261 262 260 262 262 253 244 241 241 246 248 251 254 256 257 263 273 279 280 283 280 273 228 181 169 166 163 161 165 172 168 171 172 172 164 159 167 172 169 158 157 164 170 176 174 179 184 174 165 171 176 158 176 172 170 188 189 178 177 174 175 176 178 179 179
293 294 290 285 292 288 281 279 275 276 275 274 276 274 273 271 269 266 264 262 262 261 259 259 263 263 250 244 249 243 245 246 247 251 257 265 270 277 283 287 280 270 226 190 172 169 164 163 169 175 177 171 169 175 169 171 167 163 165 168 171 173 173 175 177 166 138 171 162 170 177 178 168 173 177 186 180 174 182 178 177 179 180 181 179
296 296 295 287 286 288 283 279 276 275 276 273 273 272 272 271 270 268 262 260 259 260 259 257 257 256 254 250 248 248 245 244 241 245 243 257 271 283 290 290 287 260 217 192 177 173 168 169 171 177 180 170 173 174 174 161 160 167 169 175 172 172 174 174 153 140 154 170 175 167 168 165 176 164 184 181 185 179 183 190 183 181 180 179 178
305 306 303 299 289 273 268 271 276 273 270 274 277 276 274 273 273 269 262 259 259 259 257 254 253 250 242 240 243 249 251 247 241 238 244 252 269 280 284 286 287 255 209 194 182 176 172 171 174 174 170 176 175 166 161 167 170 174 174 168 165 160 124 81 67 105 137 182 164 155 179 172 171 169 182 164 181 191 194 193 188 183 180 180 180
310 305 305 298 293 292 281 276 273 273 272 279 283 283 278 277 276 271 263 259 258 259 259 258 254 251 240 231 231 241 248 250 246 242 242 249 263 274 278 284 287 250 210 196 180 175 175 172 175 174 174 175 169 165 167 169 160 124 89 84 92 114 132 149 145 145 157 186 182 176 166 161 182 175 162 150 161 182 183 195 195 187 184 183 183
317 317 314 310 305 302 298 290 278 277 279 284 289 288 283 276 275 265 259 257 257 258 258 257 257 252 242 233 234 241 246 248 244 243 241 240 253 264 272 281 282 250 208 195 182 180 181 178 177 176 174 168 167 170 169 160 145 139 138 142 157 161 160 158 148 154 174 173 202 185 145 156 168 160 120 124 166 175 180 195 194 198 192 188 185
317 316 312 307 305 302 299 292 283 278 280 286 292 292 290 282 271 261 250 248 251 259 258 257 255 257 247 244 242 238 242 243 245 243 240 236 244 254 268 278 278 242 209 189 179 187 183 176 175 175 171 168 171 171 163 151 147 151 152 164 168 163 167 170 170 179 169 176 186 164 147 170 155 156 127 85 68 358 212 188 195 202 197 194 191
310 311 309 306 303 302 294 282 282 289 283 286 296 296 292 289 280 258 247 230 245 251 256 259 255 252 252 248 246 245 244 247 246 243 237 232 238 249 257 274 269 238 206 185 173 171 176 167 161 159 168 173 168 163 159 153 157 162 168 168 160 166 171 176 171 153 151 202 194 174 168 158 157 171 145 124 172 234 324 178 183 183 179 181 189